Theta_e
315 315 315 315 315 314 318 323 320 322 321 317 318 319 318 319 320 320 320 320 320 319 317 316 316 317 319 319 320 320 319 319 320 318 319 323 322 321 321 320 320 318 318 321 322 323 326 330 329 328 329 329 329 330 331 331 329 327 327 326 326 325 323 320 318 319 321 324 329 332 334 335 335 334 332 332 330 325 326 325 325 327 329 330 331 332 331 332 333 333 332 332 331 330 327 323 321
314 315 316 315 316 317 322 324 319 320 318 315 318 318 318 319 319 320 320 320 320 319 317 317 316 316 318 318 318 319 320 320 320 320 320 321 321 322 321 321 321 318 318 319 321 322 324 327 328 328 328 329 329 329 331 331 330 328 328 328 327 325 323 320 319 321 322 326 333 334 334 336 335 334 332 332 330 325 323 323 321 322 323 324 325 326 326 327 329 329 329 329 329 326 322 319 316
314 314 315 316 318 320 323 323 317 317 316 314 316 319 318 318 319 320 320 319 319 317 317 318 317 316 317 318 319 319 321 320 319 319 319 319 320 322 321 321 321 320 318 317 319 320 322 324 326 326 327 327 328 329 329 329 329 328 329 329 328 326 324 321 319 322 324 329 334 335 335 336 335 333 332 332 331 327 323 322 321 320 319 319 319 320 320 320 321 321 321 320 320 318 315 314 312
313 314 315 317 321 321 323 322 319 317 315 314 314 318 318 318 319 319 319 318 318 317 317 319 319 318 318 319 319 319 320 320 319 319 320 320 321 321 322 322 321 321 319 317 318 319 320 321 324 325 326 325 325 327 327 328 328 329 329 329 329 328 326 321 320 324 327 332 335 335 335 334 333 332 332 331 331 329 326 324 321 318 317 316 315 315 315 315 314 314 314 313 313 312 312 311 311
313 314 315 318 322 323 323 321 321 318 315 316 314 317 318 317 318 318 319 318 318 317 316 319 320 319 318 319 319 320 320 320 320 320 320 320 321 322 322 322 322 321 320 318 317 318 319 319 322 324 324 324 324 325 326 328 330 330 330 330 329 328 326 321 323 328 330 333 335 335 335 334 332 331 331 331 330 329 327 325 319 314 313 313 312 312 312 312 312 312 311 311 311 310 310 309 308
313 314 316 318 321 322 321 319 319 318 318 318 315 317 318 318 318 319 319 318 318 317 317 318 319 319 318 319 319 320 320 320 320 319 320 320 320 321 322 322 322 322 321 319 318 317 317 318 321 323 323 324 324 324 325 328 329 330 330 330 330 328 325 322 325 330 331 333 334 334 333 332 331 331 330 329 328 327 326 322 315 312 311 311 311 311 311 310 310 310 309 309 308 307 306 305 305
314 317 319 318 320 320 319 318 318 318 319 319 317 318 318 319 319 318 319 319 318 317 317 318 318 318 319 319 319 320 319 318 318 318 318 318 319 320 321 322 322 322 322 320 318 317 317 318 320 322 322 323 324 323 324 326 328 328 328 328 329 326 325 325 327 329 331 333 333 333 331 330 328 327 325 323 323 322 321 317 312 311 311 310 310 309 308 307 306 306 305 305 304 304 304 304 304
315 319 321 319 321 321 319 319 318 319 319 318 318 318 318 320 319 318 319 319 318 318 317 318 317 317 320 319 318 319 318 318 318 317 317 317 317 318 320 321 322 322 322 321 319 317 316 317 319 321 322 323 323 323 323 324 325 325 325 325 325 325 324 328 328 328 331 331 332 331 329 327 325 322 318 317 316 316 314 312 311 311 310 308 307 306 305 304 304 304 304 304 304 304 304 304 304
316 319 321 320 320 320 319 318 319 320 319 318 319 319 319 319 319 318 319 319 319 318 317 317 316 317 319 318 318 319 318 318 317 317 317 316 316 317 320 321 322 323 322 321 320 317 316 317 318 320 322 322 322 321 321 322 323 323 322 321 322 324 324 325 326 327 328 328 328 328 326 325 322 318 316 314 313 312 311 311 310 309 307 305 304 304 304 304 304 304 304 304 304 304 304 304 305
317 318 321 321 319 318 317 318 318 318 318 318 318 318 319 318 317 318 318 319 319 318 317 316 316 317 319 318 319 319 318 318 317 317 317 316 316 316 318 320 321 322 323 322 321 318 316 316 317 320 321 321 321 320 321 322 322 322 321 320 320 322 323 323 323 324 325 325 325 325 325 322 321 318 315 313 311 311 310 310 309 306 305 304 303 303 303 304 304 304 304 305 305 305 305 305 305
319 318 319 319 317 316 316 317 318 318 317 317 318 318 318 317 316 317 317 318 318 318 317 315 316 317 317 318 319 319 318 318 317 318 317 317 316 316 317 320 321 322 322 322 321 320 317 316 317 319 320 320 319 319 320 321 322 321 320 320 321 322 323 323 323 323 323 323 322 322 321 319 317 316 313 311 310 310 309 308 306 304 304 303 304 304 304 304 304 305 305 306 306 306 306 306 306
320 320 318 318 317 316 317 317 318 319 319 318 319 318 316 316 316 317 318 318 318 318 317 317 317 318 318 319 319 319 318 317 317 317 317 317 316 316 317 319 320 321 322 322 321 320 318 316 316 317 318 319 318 318 319 320 321 321 321 321 321 322 323 323 323 322 322 321 320 319 320 317 313 312 311 310 309 308 307 305 304 303 303 303 304 304 305 305 306 306 307 307 307 307 307 307 307
320 322 319 317 318 318 318 317 318 319 319 320 319 318 315 315 317 318 318 318 318 318 318 318 317 317 318 319 319 318 317 317 317 317 317 317 317 316 316 318 319 319 320 322 322 320 319 317 316 316 317 317 317 317 318 319 320 321 321 321 321 321 321 322 322 321 320 318 317 317 317 315 311 310 309 309 308 307 305 304 303 303 303 303 304 305 306 306 307 307 307 307 307 308 307 307 307
319 321 319 318 318 318 318 317 319 319 318 319 318 316 315 316 317 317 318 318 318 318 318 318 316 317 318 319 319 318 317 317 317 317 316 316 317 316 316 317 318 318 318 320 322 321 320 318 316 316 315 316 316 317 317 318 320 321 321 321 321 320 319 320 320 319 318 316 314 313 313 311 309 309 309 308 307 305 304 303 303 303 303 304 305 306 307 307 307 307 308 308 308 308 308 308 308
319 320 319 319 318 318 318 318 320 318 317 319 317 315 314 315 316 316 317 318 318 318 317 317 316 317 318 318 319 319 317 316 317 317 317 316 316 316 316 317 317 317 317 319 321 321 320 318 317 316 315 315 316 316 317 317 319 321 321 321 320 320 318 316 316 316 314 313 312 311 311 309 309 308 308 307 305 304 303 303 303 303 304 305 306 307 307 307 308 308 308 308 308 308 308 308 308
318 319 320 319 319 318 318 318 318 318 318 319 316 314 315 316 315 315 316 316 317 317 316 317 316 317 318 318 318 318 317 317 317 316 316 316 316 316 316 316 317 317 317 317 318 319 319 319 317 316 315 314 315 315 316 317 318 319 321 321 320 319 317 314 313 313 312 312 311 310 309 309 308 308 307 305 303 303 303 303 303 304 305 306 307 307 307 307 307 308 308 308 308 308 308 308 308
318 319 320 318 318 318 318 318 318 317 318 318 316 314 316 316 315 315 316 315 315 316 316 316 316 316 317 317 317 317 317 317 316 316 316 316 316 316 316 316 316 317 317 317 317 318 318 318 317 316 316 315 314 315 316 316 317 318 320 320 320 318 315 313 312 312 311 311 310 309 309 308 308 308 306 304 303 303 303 303 304 305 306 306 307 307 307 307 307 307 307 307 307 308 308 308 308
318 319 319 317 318 319 318 318 318 317 316 317 317 314 315 316 316 315 315 315 315 316 316 316 316 316 317 317 317 317 317 317 316 316 316 316 316 316 316 316 316 316 316 316 316 316 317 317 317 316 316 315 315 315 315 316 316 318 319 320 319 317 315 313 312 311 310 310 309 308 308 308 308 307 305 303 303 303 303 303 304 306 306 306 306 306 306 306 307 307 307 307 307 307 307 307 307
319 319 318 317 319 319 317 318 318 316 316 318 317 315 314 315 315 314 314 316 317 316 317 317 316 316 317 317 317 317 317 316 316 316 316 316 316 316 316 316 316 316 316 316 316 316 316 316 316 316 316 315 315 315 315 315 316 317 318 318 317 317 315 313 311 310 310 309 308 308 308 308 308 307 304 303 303 302 303 303 305 306 306 306 306 306 306 306 306 306 306 306 306 306 306 307 307
319 319 317 318 319 318 316 317 317 316 316 317 317 315 313 314 314 313 314 316 316 316 318 318 317 317 317 317 317 316 316 316 316 316 316 316 315 315 315 316 315 316 316 316 316 316 316 316 315 316 315 315 315 315 315 315 315 316 316 316 316 315 314 312 311 310 309 309 308 308 308 308 307 306 303 302 302 302 302 304 305 306 306 306 306 306 306 306 306 306 306 306 306 306 306 306 306
318 317 317 319 318 317 317 316 316 316 315 315 315 314 314 314 313 313 315 315 316 317 318 318 318 318 317 317 316 316 316 316 316 316 315 315 315 315 315 315 315 315 315 316 316 316 316 316 316 315 315 315 315 315 315 315 315 315 315 315 314 314 313 312 311 310 309 309 308 308 308 308 307 305 303 302 302 302 303 304 306 306 306 306 305 306 305 305 306 305 305 305 305 305 305 306 306
317 317 318 319 317 316 317 317 316 316 314 313 313 314 315 314 314 314 314 315 316 317 318 318 317 317 316 316 316 315 315 315 315 315 315 315 315 315 315 315 315 315 315 315 316 316 316 316 316 315 315 315 315 315 315 315 315 315 315 314 314 313 313 312 311 310 309 308 308 308 308 307 307 305 303 302 302 302 303 305 306 306 306 306 305 305 305 305 305 305 305 305 305 305 305 305 305
316 317 318 318 317 317 317 316 316 316 314 314 314 315 314 314 315 315 314 315 316 316 316 316 316 315 315 315 315 315 315 315 315 315 315 315 315 315 315 315 315 315 315 315 315 315 316 316 316 316 315 315 315 315 315 315 315 315 315 314 314 313 313 312 311 310 309 308 308 308 308 307 307 306 303 303 303 303 303 305 306 306 305 305 305 305 305 305 305 305 305 306 306 305 306 305 305
315 316 317 317 317 316 317 316 315 315 314 315 315 315 315 315 316 315 314 315 315 315 315 314 314 315 314 315 314 315 315 315 315 315 315 314 315 315 315 315 314 314 314 315 315 315 315 315 316 316 316 315 315 315 315 315 314 315 315 314 314 313 313 312 312 311 309 308 308 308 308 307 307 306 304 303 303 303 303 305 306 306 305 305 305 305 305 305 305 306 306 306 306 306 306 306 306
315 315 317 316 315 315 315 315 314 314 314 314 314 314 316 316 316 314 314 315 314 314 314 314 314 314 314 314 314 314 314 315 314 315 315 314 314 314 315 315 314 315 315 315 314 314 315 315 315 316 316 316 315 315 315 315 314 314 314 314 314 313 312 313 312 311 310 309 308 308 308 308 308 307 305 303 303 303 303 305 306 306 305 305 305 305 305 305 305 306 306 306 306 306 306 306 306
315 315 316 316 315 315 314 313 313 313 313 313 313 314 315 315 314 314 314 314 314 314 314 314 314 314 314 314 314 314 314 314 314 314 314 314 314 314 314 315 315 315 315 315 315 315 315 314 315 315 316 316 316 315 315 315 314 314 314 314 314 313 313 313 313 312 310 309 308 308 308 308 308 307 305 303 303 303 303 305 306 305 305 305 305 305 305 305 306 306 306 306 306 306 306 306 306
313 314 314 314 314 314 313 312 313 312 312 312 313 313 315 315 312 314 315 314 314 314 314 313 313 313 314 314 314 314 314 314 314 314 314 314 314 314 314 315 315 315 315 315 315 315 315 314 315 315 315 315 316 316 315 315 315 314 314 314 314 313 313 313 313 312 311 310 309 308 308 308 308 308 306 304 303 302 303 304 305 305 305 305 305 305 305 305 305 305 306 306 306 306 306 306 306
312 312 312 313 313 313 312 311 312 311 311 311 312 313 314 313 311 313 314 314 313 313 313 313 313 313 314 314 314 314 314 314 314 314 314 314 314 314 314 314 314 314 314 314 314 315 315 315 314 314 315 315 315 315 316 315 315 315 314 314 314 313 313 313 313 313 312 311 310 309 308 308 308 308 307 304 303 302 303 304 305 305 305 305 305 305 305 305 305 305 306 306 306 306 306 306 306
311 311 311 313 313 313 313 313 312 311 311 310 311 312 313 313 313 313 314 314 313 313 313 313 313 313 314 314 314 314 314 314 314 314 315 315 314 314 314 314 314 314 314 314 314 314 314 315 315 314 314 314 315 315 315 315 315 315 315 314 314 314 314 313 313 313 312 311 310 309 308 308 307 308 308 305 303 302 302 303 305 305 305 305 304 305 305 305 305 305 305 305 305 305 305 305 305
311 311 310 312 313 313 314 313 310 310 311 310 311 312 313 315 315 315 315 314 313 312 313 313 313 314 314 314 314 314 314 314 314 315 315 315 314 314 314 314 314 314 314 313 314 314 314 314 315 315 314 314 314 314 315 315 315 315 315 315 314 314 314 313 313 313 312 312 311 310 308 308 308 307 307 306 303 302 302 303 304 305 305 304 304 304 305 305 305 305 305 305 305 305 305 305 305
311 311 310 312 313 314 315 313 309 310 311 310 311 311 313 315 316 316 315 313 312 312 313 313 313 313 313 313 313 314 314 315 315 315 315 315 314 314 314 314 314 314 314 314 314 313 313 313 314 315 315 315 314 314 314 315 315 315 315 315 315 315 314 314 313 313 313 312 311 310 309 308 308 307 307 306 304 302 302 302 303 304 304 304 304 304 304 305 305 305 305 305 304 304 304 304 304
311 311 313 313 312 313 315 313 311 311 310 309 311 312 313 314 315 315 314 313 311 311 312 313 313 313 312 313 312 313 314 315 315 315 315 315 314 314 314 313 313 314 314 313 313 313 313 313 314 314 314 315 315 314 314 314 314 315 315 315 315 315 315 314 314 313 313 313 312 311 310 309 308 307 307 307 305 302 302 302 302 304 304 304 304 304 304 304 305 305 304 304 304 304 304 304 304
312 312 313 314 314 314 314 314 313 311 310 309 310 312 313 314 315 314 313 313 312 311 312 312 313 313 312 313 312 312 313 314 316 316 314 314 314 314 313 313 313 313 313 313 313 313 313 313 314 314 314 314 314 315 314 314 314 314 314 315 315 315 315 315 314 314 313 313 312 311 310 309 308 307 307 307 305 303 302 301 302 303 304 304 303 303 303 304 304 304 304 304 304 304 304 303 303
314 313 314 314 314 313 313 314 313 310 310 310 310 311 312 313 314 314 313 313 312 312 313 313 313 313 313 313 313 313 312 313 314 314 313 313 313 313 313 313 313 313 314 314 314 314 314 313 314 314 314 313 314 314 314 314 314 314 314 314 314 315 315 315 314 314 314 313 312 311 310 309 308 308 307 307 306 304 302 301 301 302 303 304 303 303 303 303 304 304 304 304 304 303 303 303 303
316 315 314 314 313 312 312 313 312 310 310 311 310 310 311 312 312 313 313 313 312 312 312 313 312 313 313 313 313 313 313 313 313 313 313 313 313 313 314 313 314 314 314 314 314 314 314 313 314 314 313 313 313 313 313 313 313 313 314 314 314 314 314 314 314 314 314 314 313 312 311 310 309 308 307 307 306 305 303 301 301 301 302 303 303 303 303 303 303 303 303 303 303 303 303 303 302
315 314 314 313 313 312 312 313 312 311 310 310 311 311 312 312 312 313 313 313 313 313 313 313 313 313 313 313 313 313 313 313 313 313 313 313 313 313 314 314 314 315 314 314 314 314 314 314 314 314 314 313 313 313 313 313 313 313 313 313 313 314 314 314 314 314 314 314 314 313 312 311 309 308 307 307 307 306 304 302 301 301 301 302 303 303 303 303 303 303 303 303 303 302 302 302 302
312 312 313 313 313 313 313 313 313 310 309 311 311 311 312 312 312 312 313 313 313 313 313 314 313 313 313 314 314 314 313 313 314 314 313 313 313 314 314 314 314 314 314 314 314 314 314 314 314 314 313 313 312 312 312 312 312 312 312 313 313 313 313 313 314 314 314 314 314 313 313 312 310 309 308 307 307 307 306 303 301 301 301 301 302 303 303 303 302 302 302 302 302 302 302 302 302
312 312 313 313 313 313 313 313 313 310 309 311 311 311 312 312 312 312 313 313 313 314 314 314 314 314 314 314 314 314 313 314 314 313 313 313 314 314 314 314 314 314 314 314 314 313 313 313 313 313 313 312 312 312 312 312 312 312 312 312 313 313 313 313 313 313 313 314 314 314 313 313 311 310 308 307 307 306 306 305 302 301 301 300 301 302 302 302 302 302 302 302 302 302 302 302 302
312 312 313 313 313 314 313 312 311 309 309 311 311 311 311 311 312 312 313 313 313 313 313 313 314 314 314 315 314 313 313 314 314 312 313 313 313 314 314 314 313 313 313 313 312 312 312 312 311 311 311 312 312 312 311 311 311 311 311 311 311 312 312 312 312 313 313 313 313 314 313 313 312 311 309 307 307 306 306 305 303 301 300 300 300 301 302 302 302 302 301 301 302 301 301 301 301
311 312 313 313 313 314 313 313 311 308 309 311 311 311 312 312 312 313 313 313 313 313 313 313 314 314 314 313 313 313 313 313 313 312 313 313 313 313 313 313 312 312 312 312 312 312 311 311 311 311 311 310 311 311 311 310 310 310 310 310 310 310 310 311 311 312 312 312 312 313 313 313 312 311 309 308 307 306 305 306 304 302 301 300 300 300 301 302 302 301 301 301 301 301 301 301 301
313 313 313 313 314 314 313 313 311 310 311 310 310 313 314 315 315 315 314 312 312 313 313 314 314 313 313 313 313 313 313 313 312 312 312 313 313 312 312 312 311 311 311 311 312 312 312 312 312 311 311 311 310 310 310 309 309 309 309 309 309 309 309 309 310 310 311 311 311 312 312 313 312 311 310 308 307 306 305 305 305 304 302 300 300 300 300 301 302 301 301 301 301 301 301 301 301
314 314 313 313 313 313 313 313 312 312 313 311 311 314 316 315 315 316 315 313 313 315 315 315 314 314 313 313 314 314 313 312 312 311 312 313 312 311 310 311 311 311 311 311 311 312 312 312 312 311 311 311 310 310 309 309 309 309 309 309 309 309 309 309 310 310 310 310 310 311 311 312 312 311 311 309 307 306 305 305 305 304 303 301 300 300 300 300 301 301 301 301 301 301 301 301 301
314 315 314 312 312 313 313 313 312 313 314 312 311 313 315 315 315 315 316 315 315 316 316 316 315 314 314 314 314 313 311 312 312 311 312 311 311 310 310 310 311 311 311 312 312 312 312 312 312 312 311 311 310 310 309 308 308 308 308 309 309 309 309 309 309 309 309 309 310 310 310 311 311 311 311 310 308 306 305 305 304 304 304 302 300 300 300 300 300 300 301 301 301 300 300 300 300
314 314 314 313 312 313 313 312 312 312 313 311 311 312 314 315 315 314 315 314 315 315 316 316 316 315 314 313 313 312 310 311 311 310 310 310 310 310 309 310 311 311 312 312 312 312 312 313 312 312 312 311 310 310 309 309 308 308 307 307 308 308 308 308 308 308 308 308 308 308 309 309 309 310 310 310 310 308 306 304 304 304 304 303 301 300 300 300 299 300 300 300 300 300 300 300 300
313 311 310 311 311 312 311 311 312 311 311 313 313 312 314 316 315 313 313 314 315 316 316 316 316 314 313 313 312 311 310 311 311 310 309 310 310 310 309 310 310 311 311 311 312 312 312 312 312 312 312 312 311 310 309 308 308 307 307 307 307 307 307 307 307 307 307 307 307 307 307 308 308 308 308 309 309 309 307 305 304 303 303 303 302 300 299 299 299 299 299 300 300 300 300 300 300
311 309 309 310 311 310 310 311 312 311 312 314 314 313 314 317 316 313 313 314 316 317 315 314 315 314 313 313 311 310 309 310 310 310 309 309 309 309 309 310 310 311 311 311 312 312 312 312 312 312 312 312 312 311 309 308 307 307 307 306 306 306 306 306 306 306 307 307 307 307 307 307 307 307 307 308 308 308 307 306 304 303 303 303 303 301 300 299 299 299 299 299 299 300 300 299 299
309 310 312 312 311 310 310 310 311 312 315 316 314 313 314 316 317 315 314 313 314 316 314 314 315 315 314 313 311 308 308 308 309 309 309 309 310 310 310 310 310 311 311 311 311 311 312 312 312 312 312 312 312 311 311 309 307 306 306 306 305 305 305 305 305 305 305 305 306 306 306 306 306 306 306 307 307 307 307 307 305 303 302 302 302 302 301 300 299 298 298 298 299 299 299 299 299
309 311 311 312 313 311 310 311 311 313 317 315 313 314 314 316 317 315 314 313 311 312 313 313 315 315 314 313 309 308 308 307 307 308 308 309 309 310 310 310 311 311 311 310 310 311 311 311 311 311 311 311 311 311 311 310 309 307 306 305 305 305 304 304 304 304 304 305 305 305 305 305 305 306 306 306 306 306 306 306 305 304 302 301 301 302 301 301 300 299 298 298 298 298 299 299 299
309 310 310 312 314 313 314 314 313 315 317 313 310 313 314 315 316 314 314 314 312 312 312 313 313 313 313 310 308 307 307 306 306 306 307 307 307 308 308 309 310 310 310 310 310 311 311 311 311 311 311 311 311 311 311 310 310 308 307 306 305 304 304 304 303 304 304 304 304 304 304 304 304 305 305 305 306 306 306 305 305 305 304 303 302 301 301 301 300 299 298 298 298 298 298 298 298
309 311 311 313 315 316 317 317 314 316 316 310 308 312 313 314 315 314 314 314 313 312 311 311 312 311 310 308 306 306 305 305 306 305 305 305 306 306 306 307 308 309 309 309 310 310 310 310 310 310 310 311 310 310 310 311 310 309 308 307 305 305 304 304 304 303 303 303 303 303 303 303 304 304 304 305 305 305 305 305 305 304 304 303 302 301 300 300 300 299 299 298 298 298 298 298 298
310 311 312 313 315 316 318 318 317 318 316 309 307 312 314 315 314 312 312 312 312 310 310 311 311 308 307 306 305 303 303 303 304 304 304 303 304 304 304 305 306 307 307 308 308 309 309 309 309 309 309 310 310 310 310 310 310 310 309 308 306 305 304 304 304 303 303 303 303 303 303 303 303 303 304 304 304 304 304 304 304 304 303 303 302 301 300 299 299 299 299 298 298 297 297 297 297
310 309 310 312 313 314 315 316 316 315 314 311 310 312 314 314 314 311 311 311 310 310 310 310 308 306 304 303 302 301 300 301 301 302 302 302 302 302 302 303 304 305 305 306 306 307 308 308 308 308 308 309 309 309 309 309 309 309 309 309 308 306 305 304 304 303 303 302 302 302 302 302 302 303 303 303 303 303 303 303 303 303 303 302 302 301 300 299 298 298 298 298 298 297 297 297 297
310 309 311 312 311 311 313 314 314 312 313 315 314 314 313 314 314 313 312 312 311 310 309 307 305 303 302 301 299 298 298 298 299 299 299 299 299 299 300 300 301 302 303 303 304 305 306 307 307 307 307 308 308 308 308 308 308 308 308 309 309 308 306 305 304 303 302 302 302 301 301 302 302 302 302 302 303 302 302 302 302 302 302 302 302 301 300 299 298 298 298 298 298 298 297 297 297
310 310 311 311 309 310 311 313 314 314 314 316 315 315 315 315 316 315 314 314 312 308 306 304 303 302 300 299 298 297 297 297 297 297 297 297 297 298 298 298 298 299 300 301 302 303 304 304 305 306 306 307 307 307 307 307 307 308 308 307 307 308 307 305 304 303 302 302 301 301 301 301 301 301 301 301 301 301 301 301 302 302 302 302 302 302 301 300 299 298 297 297 298 298 297 297 297
309 309 309 310 311 312 312 313 314 315 316 316 315 315 315 315 315 315 315 313 309 306 303 301 301 300 299 298 297 296 296 296 296 296 296 296 296 296 296 296 297 297 298 299 300 300 301 301 302 303 304 305 305 306 306 306 306 306 307 306 306 306 306 306 304 303 302 301 301 300 300 300 300 300 300 300 300 300 301 301 301 301 301 301 301 301 301 301 300 300 299 298 298 298 297 297 297
308 307 308 311 311 312 313 313 313 316 317 317 317 317 316 316 315 314 314 309 305 304 302 300 299 299 298 297 297 296 295 295 295 295 295 295 295 295 295 295 295 296 297 297 298 298 299 299 300 301 301 302 303 304 305 306 305 305 305 305 305 304 305 305 304 303 302 301 301 300 300 299 299 299 299 299 299 299 300 300 301 301 301 301 301 301 301 301 301 301 300 300 299 299 298 298 297
310 309 311 313 312 312 314 314 314 315 316 317 318 318 317 316 315 313 310 305 303 303 301 300 300 298 297 297 296 295 295 294 294 294 294 294 294 295 295 295 295 296 297 297 298 298 299 299 299 299 300 300 301 302 303 304 304 304 304 304 304 304 303 303 304 303 303 302 301 300 300 299 299 298 298 298 298 298 299 299 299 300 300 300 300 300 301 301 301 301 301 301 301 300 300 299 299
313 312 313 314 314 313 315 315 315 315 315 316 317 316 316 315 313 309 304 302 302 302 302 301 300 298 297 296 295 295 294 294 294 294 294 294 294 295 295 296 296 296 297 297 298 298 298 298 297 298 298 298 298 299 300 301 302 302 302 303 303 303 303 303 303 303 303 303 302 301 300 299 298 298 298 297 297 297 298 298 298 298 299 299 299 300 300 300 301 301 301 301 301 301 301 300 300
Wind_Speed
8 9 8 7 5 5 3 4 4 1 2 4 2 3 1 1 3 4 2 1 2 0 3 6 5 7 6 2 3 7 7 7 5 4 4 3 2 1 3 5 8 11 14 20 24 24 25 24 23 22 22 21 21 20 19 18 17 16 15 14 13 13 12 11 11 11 12 11 10 10 10 10 11 12 10 9 9 8 8 7 6 6 6 6 7 6 6 5 6 6 6 7 8 8 8 9 9
7 7 7 6 4 3 1 2 4 2 3 5 1 2 1 2 3 4 1 4 4 3 5 6 7 10 11 6 6 8 9 11 10 11 11 9 7 5 4 6 7 10 13 19 23 24 25 25 24 23 22 22 21 21 19 19 17 16 16 15 15 14 13 12 11 13 13 12 11 11 12 12 13 13 12 10 10 9 8 7 6 6 7 8 8 9 8 8 9 9 9 9 10 11 12 12 11
6 6 5 5 3 2 1 1 4 3 4 5 2 1 1 2 4 3 2 4 5 7 8 5 7 10 11 9 7 6 7 9 13 14 15 14 11 9 7 8 9 11 13 18 22 24 25 25 25 23 22 22 22 22 21 20 19 17 16 15 15 14 14 12 12 14 13 13 13 13 14 15 15 14 12 12 11 10 9 8 7 8 9 10 10 11 11 11 12 12 12 13 13 14 13 12 11
6 5 4 3 2 2 2 2 3 4 4 3 3 1 2 4 3 2 2 4 8 9 6 4 6 7 9 9 6 6 9 10 11 11 11 11 10 10 9 10 11 11 13 17 21 24 24 24 24 23 22 21 21 21 21 20 19 18 17 16 15 15 14 13 14 14 13 14 14 14 15 16 16 15 13 13 12 11 11 9 10 11 11 11 11 11 12 12 13 13 13 13 13 13 12 11 11
5 4 3 3 3 1 1 2 1 4 4 2 3 1 2 3 4 4 4 6 10 9 6 5 3 3 8 10 6 4 8 8 8 8 8 10 9 9 10 11 12 13 14 17 20 23 23 23 24 24 23 22 21 21 21 20 19 18 18 17 16 15 14 14 14 14 15 15 15 15 16 17 16 15 15 14 13 12 12 12 13 12 11 11 10 10 11 11 12 12 12 11 11 11 10 9 8
4 3 2 3 2 1 1 3 2 5 3 2 6 6 4 3 5 8 8 8 8 7 7 7 5 4 5 9 11 9 11 10 9 10 10 10 9 9 10 11 13 14 15 17 20 22 23 22 23 24 23 22 21 21 21 20 20 19 18 18 17 16 15 15 16 16 16 16 17 17 16 17 17 16 16 15 14 14 14 15 14 12 11 11 10 9 9 9 9 10 9 9 9 8 7 7 6
3 2 2 3 2 1 3 4 4 5 1 1 6 8 8 4 3 7 9 7 3 4 7 8 6 5 5 6 9 11 12 12 13 14 13 13 11 11 11 12 14 15 16 18 20 22 23 22 24 24 24 23 22 22 21 20 20 19 19 18 18 17 16 15 17 18 18 18 18 18 18 18 18 17 17 16 15 15 15 15 13 11 10 9 8 7 7 7 7 7 7 7 6 6 5 5 4
4 3 2 3 1 1 4 4 5 4 1 2 6 9 12 9 5 8 9 5 2 3 6 9 6 4 6 5 7 10 11 12 13 13 13 14 13 12 11 12 14 16 18 18 20 22 22 23 24 24 24 24 23 22 21 21 21 20 19 18 18 18 17 17 18 19 20 20 20 20 19 18 18 18 17 16 15 14 15 14 12 10 8 7 6 6 6 6 6 5 5 5 5 5 4 4 4
5 3 2 2 1 2 3 4 4 4 4 4 7 11 13 12 8 8 9 6 5 5 6 8 8 5 4 5 9 11 12 11 11 12 11 12 12 12 12 12 14 17 18 19 20 21 22 24 25 25 25 25 24 23 21 21 21 20 20 19 19 18 19 19 20 20 20 21 21 20 19 18 19 18 17 16 13 13 13 12 11 8 7 6 6 5 5 5 5 5 5 5 5 4 4 4 4
4 2 2 1 1 3 4 4 3 2 4 4 8 13 14 11 7 7 8 6 5 4 5 7 10 11 6 7 11 10 11 11 11 11 10 10 10 11 12 13 15 17 19 20 20 21 22 24 25 26 26 25 24 23 22 21 21 21 21 20 19 19 19 19 19 20 20 20 20 20 20 20 20 19 18 15 11 11 12 11 10 8 6 6 5 5 5 5 5 5 5 5 5 5 5 5 5
2 1 2 1 2 4 3 3 4 3 3 4 8 12 11 7 5 6 7 7 6 5 6 6 7 12 10 8 10 10 11 11 10 10 9 9 9 10 11 13 15 17 19 20 20 21 22 24 26 26 26 26 25 24 23 23 22 22 21 20 20 20 19 20 20 20 21 21 21 20 20 20 20 19 16 12 10 11 11 10 9 7 6 6 6 5 5 5 5 5 5 5 5 5 5 5 5
2 1 2 3 3 3 3 5 6 6 6 5 4 3 3 3 4 3 5 5 5 6 8 9 5 5 6 5 8 13 14 10 8 9 9 9 9 9 11 13 15 17 19 21 22 22 22 24 26 27 27 27 26 25 25 24 23 22 21 20 20 21 21 21 21 21 22 22 22 21 20 19 17 15 12 10 10 11 11 10 8 7 7 7 6 6 6 6 5 5 5 5 5 5 5 5 5
2 1 2 2 1 2 2 4 5 6 7 3 1 3 3 4 5 3 3 5 5 5 6 10 8 4 5 7 11 16 12 7 7 9 11 11 9 9 10 13 16 17 19 21 22 23 23 24 26 28 28 27 27 26 26 26 25 23 22 21 21 21 21 22 22 22 23 23 23 22 22 20 16 13 11 11 11 11 10 9 8 8 8 7 7 7 7 6 5 5 5 5 5 5 5 5 5
3 2 3 1 0 2 2 5 4 4 4 1 1 4 5 4 5 4 3 6 6 6 5 5 9 6 7 8 9 9 7 9 12 13 14 12 10 10 11 13 16 18 19 21 22 24 24 25 26 28 28 28 28 27 27 27 26 25 24 22 22 22 22 22 23 24 24 23 22 21 21 19 15 12 12 11 11 11 11 10 9 9 8 8 8 7 7 6 6 5 5 5 5 5 5 5 5
4 4 2 2 2 2 3 3 2 3 4 1 2 4 5 6 6 5 5 7 7 8 8 5 8 6 4 6 6 6 10 17 18 18 16 14 13 12 12 14 16 18 19 21 23 25 25 26 27 28 29 29 29 29 28 28 27 26 25 24 23 23 22 22 23 23 23 22 21 20 19 17 14 13 13 12 12 12 11 10 10 10 9 9 8 8 7 7 6 6 6 5 5 5 5 5 5
5 5 1 3 2 2 3 3 1 4 4 0 3 5 5 6 5 5 6 8 11 14 12 9 11 11 10 13 15 17 20 22 21 21 19 17 16 14 14 15 17 19 21 22 23 25 26 27 27 28 29 29 30 30 30 29 28 27 26 25 25 24 23 23 22 22 22 21 21 19 18 16 14 14 14 14 13 12 12 11 11 10 10 9 9 9 8 8 7 7 7 6 6 6 5 5 4
6 4 3 4 3 3 3 4 3 2 3 2 4 6 6 5 5 6 10 11 15 18 17 16 17 19 22 23 23 24 24 24 23 22 22 21 19 18 18 17 19 21 22 23 24 26 27 28 28 29 30 30 30 31 31 31 29 28 28 27 26 26 25 23 22 22 22 22 21 19 17 16 16 16 15 15 14 13 13 12 12 11 11 10 10 10 9 9 8 8 7 7 7 6 6 5 5
5 3 4 5 5 4 4 6 5 1 5 5 4 5 7 6 3 6 9 11 15 19 22 23 24 26 28 28 26 25 23 23 24 23 23 24 23 22 21 20 21 22 23 24 25 26 27 28 29 30 30 30 31 31 31 31 30 29 29 29 28 27 26 24 23 23 23 22 21 19 18 18 18 17 16 16 15 14 14 14 13 12 12 12 11 11 10 9 9 8 8 7 7 6 6 5 5
6 3 3 6 6 3 4 7 6 4 8 9 8 7 7 8 5 5 8 11 12 16 20 19 22 27 28 26 23 22 21 23 24 24 25 25 25 25 24 23 23 23 24 25 25 26 27 28 29 30 30 31 31 32 32 31 31 31 31 31 29 28 27 26 25 25 24 23 21 19 19 19 19 18 18 17 16 16 16 15 14 14 13 13 12 12 11 10 9 9 8 8 7 7 6 6 5
6 5 5 8 7 4 6 9 9 11 13 11 11 9 8 10 8 6 7 12 12 15 19 15 17 23 24 22 20 20 21 23 26 26 27 27 26 26 26 26 25 25 24 24 25 27 27 28 29 30 31 32 32 32 33 33 32 32 32 32 30 29 29 27 27 26 25 23 21 20 21 21 20 20 20 18 18 18 18 17 16 16 15 15 13 12 12 11 10 10 9 8 8 7 6 6 5
4 6 8 7 3 4 8 13 14 15 15 12 10 11 11 12 11 9 8 9 11 16 20 18 21 25 22 20 22 24 24 26 28 29 30 29 28 27 27 26 26 25 25 26 27 28 27 28 30 31 32 32 33 33 33 34 34 34 34 33 32 31 30 29 28 27 26 25 23 23 23 22 21 22 21 20 21 21 20 19 18 18 17 16 14 14 13 12 11 11 10 9 8 7 7 6 5
4 9 14 11 4 6 8 10 13 14 13 11 8 10 12 11 12 13 11 9 13 21 23 22 28 31 28 26 27 30 30 30 31 31 31 30 29 28 26 26 25 25 26 28 28 27 28 29 31 31 32 33 34 34 34 35 35 35 35 34 34 33 32 31 30 28 27 26 25 25 24 23 24 24 23 23 23 23 22 21 20 19 18 17 16 15 14 13 12 11 11 10 9 8 7 6 5
8 9 13 14 10 10 12 9 11 12 10 8 8 13 15 12 15 15 16 19 25 32 33 34 37 36 36 35 33 34 33 32 31 30 30 29 29 27 26 26 25 25 26 27 26 28 29 30 31 32 33 34 34 35 36 36 36 36 36 36 36 35 34 33 31 30 29 28 27 27 26 26 26 26 26 25 25 24 24 23 22 21 20 18 17 17 16 14 13 12 12 11 10 9 8 6 6
10 8 8 12 12 15 18 12 13 15 12 13 15 18 20 16 15 13 14 22 34 41 41 41 40 36 36 35 31 31 29 29 29 27 27 27 27 26 26 26 25 25 26 26 26 28 30 30 31 32 34 35 35 36 37 37 37 37 38 38 37 37 36 35 33 32 31 29 29 28 28 28 28 28 28 27 27 26 25 24 24 23 22 20 19 18 17 16 15 14 13 12 11 9 8 7 6
11 12 10 9 11 16 18 14 16 18 17 18 18 19 25 25 18 17 21 30 40 41 39 36 33 32 31 30 27 26 26 27 27 26 26 25 25 25 25 25 26 26 25 25 27 28 29 30 31 33 34 36 37 38 39 39 39 39 40 39 38 38 37 36 35 34 32 31 31 31 30 30 30 30 29 29 28 28 27 26 25 25 24 22 21 20 18 17 16 15 14 13 12 10 9 8 7
9 13 12 10 13 15 16 16 16 17 17 16 13 18 27 25 18 21 24 28 31 26 26 27 26 28 29 29 29 27 27 27 26 26 26 25 25 26 25 25 26 25 23 25 26 27 28 30 31 33 34 35 37 39 41 40 40 41 41 39 38 39 38 38 38 36 34 34 33 32 32 32 31 31 31 30 30 30 29 28 27 27 25 24 23 21 20 19 18 17 16 14 13 12 10 9 8
3 7 11 15 18 18 16 16 17 15 16 16 14 17 25 18 9 13 13 14 19 18 23 27 27 30 30 30 29 28 27 26 25 25 25 25 24 24 23 24 25 23 23 25 25 25 28 30 32 33 34 35 37 40 41 41 41 42 41 40 40 40 40 39 39 38 37 36 35 34 34 33 33 33 33 32 32 31 31 30 30 29 27 26 24 23 21 20 19 19 18 16 15 13 12 10 9
5 6 11 16 17 19 17 17 20 14 10 14 15 16 22 13 6 19 25 20 21 23 27 29 28 29 28 27 27 27 29 28 27 28 28 27 27 27 27 27 28 27 27 27 26 26 28 30 31 32 34 36 38 40 41 41 42 42 42 42 42 41 41 41 41 40 39 38 37 36 35 35 35 35 35 34 33 33 33 32 32 31 29 27 25 24 23 22 21 20 19 18 16 15 13 11 9
7 5 10 15 13 17 18 15 14 10 6 8 11 9 15 11 13 29 34 24 21 21 26 29 28 28 26 26 28 31 34 34 33 34 33 33 32 32 32 33 32 32 32 30 28 29 29 28 30 31 33 36 38 40 41 42 43 43 43 44 43 43 42 41 42 42 41 40 38 37 37 37 37 37 36 35 35 35 35 34 33 32 31 29 27 26 24 24 23 22 21 19 17 16 14 12 10
7 3 4 11 10 12 11 7 4 5 6 9 10 5 9 11 19 27 24 20 18 17 22 26 25 26 27 30 34 37 39 38 38 38 37 37 36 35 35 35 35 35 35 33 32 30 30 29 29 30 33 35 37 39 41 42 43 43 45 45 45 45 43 42 43 43 42 41 40 39 39 40 39 38 38 37 37 37 36 36 35 34 33 31 29 27 26 26 25 24 22 20 19 17 15 13 12
5 2 3 6 6 8 4 5 6 4 5 14 11 7 9 12 19 20 15 16 16 15 20 21 21 25 31 35 39 41 40 39 39 39 38 38 38 38 37 36 35 35 34 33 31 30 31 31 30 30 30 33 36 38 41 42 43 43 44 45 46 46 44 44 44 44 44 43 42 41 41 41 41 41 40 39 38 38 38 38 37 36 35 33 31 30 29 28 27 25 24 22 20 18 17 15 13
3 3 5 4 4 8 9 4 6 6 4 13 11 6 8 12 17 17 14 14 12 14 20 22 24 29 34 36 38 41 41 40 39 38 38 38 39 38 36 35 32 31 31 30 28 27 29 30 30 31 31 32 34 36 38 40 42 44 45 45 46 46 46 46 46 45 45 44 44 44 44 43 43 43 42 40 40 40 40 40 39 38 37 35 33 32 31 30 28 27 25 23 22 20 18 16 15
4 5 8 7 8 8 8 8 4 6 4 9 12 7 8 10 14 17 19 18 16 17 24 28 31 33 35 34 33 36 39 41 42 38 38 38 37 35 33 32 29 27 26 25 25 24 24 26 28 30 31 32 33 34 36 39 42 44 45 46 47 46 47 48 47 47 47 46 46 46 46 46 45 44 43 42 42 42 41 41 41 40 38 37 36 34 33 32 30 29 27 25 24 22 20 18 16
4 5 7 7 10 9 8 9 1 6 5 7 10 10 12 14 18 25 26 24 22 24 28 31 34 34 33 31 28 31 35 40 42 38 36 35 32 30 28 26 24 22 21 20 20 21 21 23 25 27 29 31 33 34 36 39 41 43 45 47 47 47 47 48 49 50 49 49 48 48 48 47 46 46 45 44 44 43 42 42 42 41 40 40 39 37 35 34 32 31 29 28 26 25 22 20 18
8 6 7 7 8 9 10 11 3 1 5 6 8 12 15 17 20 27 30 24 23 27 28 29 32 34 33 28 28 35 37 34 34 33 32 29 26 24 22 20 18 17 17 16 16 17 18 19 21 23 26 29 31 34 37 39 41 43 45 47 48 48 49 50 51 51 51 51 50 50 49 48 48 48 47 46 45 45 44 43 43 43 43 43 42 40 38 36 34 33 32 31 29 27 25 23 20
8 7 8 11 10 10 12 14 7 2 7 9 12 15 15 16 17 21 27 24 22 28 29 28 30 30 29 27 30 34 32 28 29 30 26 24 23 20 17 15 13 12 11 11 11 12 13 15 17 20 23 25 28 32 36 39 42 44 46 47 48 49 50 51 51 52 52 52 51 51 51 50 50 50 49 48 47 46 46 45 45 45 45 45 44 43 41 39 37 36 35 33 31 29 27 24 23
7 7 10 12 11 12 13 16 9 2 5 11 12 17 17 17 18 19 27 28 25 27 28 27 28 27 27 30 29 21 20 26 29 27 24 22 20 15 12 11 9 8 9 9 9 9 10 11 14 17 20 22 25 29 33 36 40 44 46 46 47 48 49 50 51 51 52 53 52 52 53 52 52 52 51 51 50 48 48 48 48 48 48 48 46 45 43 41 39 38 36 35 33 31 29 27 26
10 10 11 11 10 13 13 15 12 0 3 9 10 17 17 16 18 19 26 26 22 23 22 24 27 30 30 25 17 13 20 30 29 26 24 19 14 13 12 10 8 8 9 9 10 11 11 13 14 16 18 21 24 27 30 32 36 40 43 44 45 47 48 49 50 51 52 53 54 54 54 55 55 54 54 53 52 51 51 51 51 50 50 49 48 46 44 42 41 40 39 37 35 34 32 30 29
12 9 9 9 8 12 12 11 9 0 2 7 10 15 15 17 21 21 23 21 21 21 18 23 30 31 24 13 12 20 28 29 25 22 19 14 15 15 12 9 7 7 8 9 10 12 13 15 17 18 19 20 22 25 27 29 31 34 38 41 44 46 47 49 50 52 53 54 56 56 57 57 57 57 56 56 55 54 53 53 53 52 51 50 50 48 47 45 44 43 42 40 38 37 35 33 31
9 9 8 8 7 10 8 5 2 0 4 9 13 14 12 15 17 16 17 16 19 21 20 27 32 26 18 15 19 24 24 22 19 16 15 17 17 16 13 10 8 7 8 10 11 13 14 16 17 17 18 20 21 24 24 26 29 31 34 37 40 44 46 48 49 51 53 55 57 58 59 59 59 59 58 58 57 57 56 55 54 53 52 52 51 51 50 49 48 47 45 43 41 39 38 36 33
9 9 8 11 11 11 11 6 5 7 8 6 10 12 7 6 6 4 3 5 9 14 19 23 21 17 17 18 18 17 16 14 13 12 16 19 19 18 16 15 13 12 12 13 14 14 14 15 16 16 17 18 20 22 23 24 27 29 31 34 37 42 45 47 49 51 52 56 57 59 60 61 61 61 60 60 59 59 58 57 56 54 53 53 53 53 53 52 51 50 48 46 45 42 40 38 35
9 8 11 15 14 13 14 11 8 8 6 1 6 10 3 3 4 3 2 2 5 10 16 13 8 9 13 15 16 15 13 11 11 13 17 19 20 20 19 19 19 18 19 19 19 18 17 16 15 15 15 16 17 19 21 24 27 28 30 33 35 39 42 44 46 49 51 53 54 56 58 59 60 61 61 61 61 61 60 59 57 56 55 54 55 55 55 54 54 53 51 49 47 45 42 40 38
9 4 8 13 12 12 12 9 6 5 5 1 3 6 6 4 5 5 6 5 7 13 14 8 6 9 12 15 15 11 11 12 14 17 19 21 22 21 21 21 21 21 21 21 21 21 21 20 18 16 14 14 14 15 18 22 26 29 31 32 33 35 37 39 41 44 47 49 50 52 54 55 58 60 61 62 62 62 62 61 59 57 56 56 56 56 57 57 56 54 52 50 48 47 45 43 42
6 1 1 5 7 9 6 5 5 5 6 3 4 5 9 8 4 5 5 4 10 16 11 6 6 7 10 10 7 9 13 15 16 19 22 22 21 21 21 20 19 19 18 18 18 19 21 22 22 21 18 16 13 13 14 17 21 27 30 32 34 34 35 36 39 41 42 44 46 48 50 52 53 55 58 60 62 63 63 62 61 60 59 58 58 58 58 58 57 55 53 51 50 49 48 46 44
2 3 2 1 1 3 1 3 5 3 6 4 5 6 6 9 2 4 2 5 11 11 4 5 5 6 9 8 11 12 15 17 15 18 22 21 20 19 18 18 18 17 17 18 18 19 20 22 23 24 24 22 18 15 13 13 16 21 26 30 33 35 36 37 38 40 39 41 43 45 47 49 50 51 53 56 59 61 63 63 63 62 61 61 60 59 58 58 57 56 55 54 53 52 50 48 46
1 5 3 3 2 2 1 3 4 3 7 5 7 8 6 10 3 5 3 4 7 5 4 2 4 5 9 13 15 12 15 18 16 17 19 19 19 17 15 15 17 17 18 18 18 19 21 22 23 24 25 26 24 20 16 14 14 17 21 25 29 32 35 37 39 40 39 40 41 42 44 46 47 48 49 51 54 57 60 62 63 64 63 63 62 60 59 58 57 57 56 56 55 54 52 50 49
3 5 1 0 2 1 1 2 1 3 9 5 11 14 8 8 1 6 4 2 3 2 4 3 5 9 14 14 14 13 17 20 20 18 17 16 15 12 13 14 15 17 18 17 18 20 21 23 24 24 24 25 25 24 21 17 15 15 17 21 24 27 31 35 38 39 39 40 41 41 42 43 45 45 45 47 49 52 55 59 62 64 65 64 63 61 60 59 58 58 57 56 56 55 54 52 51
2 2 2 3 2 1 2 1 2 4 8 2 8 12 11 8 3 3 1 1 0 1 3 7 9 11 15 14 17 21 23 23 23 20 18 17 14 13 13 14 16 18 19 20 21 22 21 22 23 23 24 23 24 24 22 20 17 16 16 18 20 23 27 31 35 37 39 40 40 40 41 42 43 43 43 44 46 47 50 55 60 63 65 66 65 63 62 60 59 58 57 57 57 56 56 54 53
3 2 2 4 4 2 3 2 3 6 6 1 3 5 9 11 6 2 6 4 0 2 4 7 10 13 17 20 24 24 24 23 23 22 21 21 21 21 18 17 17 18 20 22 23 22 21 21 20 21 23 23 23 23 22 21 19 17 16 16 17 19 23 26 30 33 36 38 39 40 41 42 42 42 42 42 42 43 46 51 55 58 62 65 65 65 64 62 60 59 59 58 57 57 57 57 56
7 6 5 5 3 3 5 4 3 6 3 2 1 3 6 10 6 6 10 5 3 3 3 8 12 14 17 22 22 22 23 22 22 22 22 23 23 23 21 20 18 17 18 18 19 20 20 21 20 20 20 21 22 22 21 20 19 18 16 16 16 17 19 21 25 29 32 35 37 39 40 41 41 41 40 40 39 40 42 46 49 53 57 61 64 65 65 63 61 60 60 59 58 58 58 58 58
7 4 3 4 4 5 6 4 5 7 3 2 2 3 4 4 1 1 3 3 6 5 7 11 15 16 19 19 19 21 22 22 22 22 22 23 22 21 21 20 19 18 17 16 16 17 18 20 21 21 20 19 20 21 22 21 20 19 17 16 15 15 17 19 21 24 27 31 34 36 38 39 39 39 39 38 38 38 39 41 44 48 52 56 61 64 65 64 62 61 61 60 58 58 58 58 58
2 2 2 4 4 5 5 4 4 4 4 2 3 4 4 3 4 3 0 2 3 4 9 15 18 20 20 19 21 22 23 24 24 23 22 22 21 21 21 21 20 19 18 18 18 18 18 19 20 21 22 21 20 20 21 22 22 21 20 18 17 15 16 17 19 21 24 27 31 34 35 37 37 37 38 38 37 37 37 38 40 43 46 50 55 59 62 63 63 62 61 61 59 58 58 58 58
3 3 4 2 1 1 5 6 1 0 6 5 5 8 6 6 9 2 6 5 6 8 12 17 18 19 20 20 20 21 23 24 24 24 24 23 23 23 23 23 22 21 20 20 20 20 19 18 18 19 21 22 22 22 22 23 24 24 22 21 19 18 16 16 18 19 21 24 28 31 32 34 36 36 37 37 37 37 37 37 38 39 41 44 48 53 57 60 62 62 62 61 61 59 58 58 58
3 3 2 2 2 1 2 4 0 2 7 5 7 13 10 7 7 3 4 6 10 11 12 15 16 18 19 17 17 19 22 23 24 25 24 24 24 24 24 24 23 22 21 21 20 19 18 18 18 19 20 22 24 25 26 26 26 26 25 24 21 19 18 16 16 18 19 22 25 27 30 32 34 35 36 37 37 38 38 37 37 38 39 40 43 46 50 55 58 60 61 61 61 60 60 60 60
0 1 1 1 1 2 2 2 1 4 7 5 7 12 10 8 7 5 10 10 11 10 10 12 13 15 14 13 14 16 19 22 23 24 24 24 24 24 24 23 23 23 22 21 21 19 19 19 19 20 20 21 23 25 27 28 28 27 26 25 23 21 19 18 17 17 18 20 23 24 27 29 32 34 36 37 37 38 38 38 37 38 39 39 40 42 45 48 52 56 59 60 61 61 61 62 61
1 1 2 1 1 2 2 1 0 3 6 5 6 8 6 4 6 12 12 9 10 7 8 9 9 11 11 10 11 12 16 19 20 21 22 23 23 24 24 24 24 24 24 24 23 23 23 23 23 23 22 22 22 23 24 26 28 27 25 25 24 23 21 19 19 18 18 19 20 21 23 25 27 31 34 36 37 38 38 38 38 38 38 39 40 41 41 43 45 49 53 56 58 59 61 62 62
2 1 1 1 1 0 2 2 2 3 6 6 6 6 4 3 7 10 6 9 9 7 8 5 5 8 8 8 9 11 13 16 17 19 20 21 22 23 23 23 24 24 24 24 25 25 26 26 26 26 25 24 22 21 20 21 23 25 26 25 25 25 23 21 20 20 19 18 17 18 19 21 24 27 30 33 35 36 37 37 38 38 38 39 40 40 40 40 41 44 46 49 52 54 57 59 60
4 4 5 6 5 3 5 7 5 5 6 5 6 8 6 4 2 2 7 8 7 7 7 5 5 6 6 7 8 9 12 15 16 17 18 20 21 21 22 23 23 24 24 25 25 26 26 26 26 25 25 24 23 21 20 20 22 23 25 26 26 26 25 24 22 21 20 20 19 18 17 18 20 22 25 28 32 34 35 36 37 38 38 39 39 40 39 39 40 41 43 45 47 49 51 54 56
Wind_Direction
279 273 271 268 274 273 292 327 288 170 269 276 277 293 222 133 328 280 267 298 285 332 237 253 222 195 191 242 297 311 293 261 284 288 312 7 5 1 187 188 187 195 198 200 203 202 199 201 203 201 199 200 200 199 196 195 196 195 196 197 200 203 204 208 210 208 201 196 188 184 188 190 196 199 198 191 191 192 189 196 197 196 203 213 218 224 232 237 243 244 251 256 258 261 275 289 292
284 276 274 265 269 268 266 330 283 260 263 280 271 265 22 94 250 256 321 7 346 326 286 252 223 214 221 255 294 297 272 244 257 266 274 285 297 302 233 217 199 194 195 199 203 204 202 203 205 205 202 201 202 203 201 201 203 202 201 201 203 205 207 209 209 206 198 191 186 189 195 198 203 207 206 201 202 203 205 216 224 228 230 236 240 243 247 250 253 254 258 262 265 272 282 288 290
286 280 271 262 258 255 222 249 267 280 278 290 319 117 79 257 254 273 357 2 340 304 290 253 225 226 229 248 262 269 273 261 266 265 269 276 276 276 248 223 211 197 194 197 202 205 205 205 207 207 205 205 204 205 204 205 209 208 206 206 207 208 209 211 208 205 195 189 190 194 201 207 214 218 214 213 215 216 221 231 246 255 255 251 250 252 255 256 258 260 263 267 271 275 280 284 286
283 278 258 237 223 229 215 243 266 276 280 293 323 104 184 279 316 344 346 334 323 301 278 236 231 231 229 244 262 262 266 275 283 274 266 273 268 265 250 226 218 205 199 197 201 206 208 208 207 208 208 209 209 208 208 208 210 210 209 210 211 212 215 214 206 201 195 192 195 200 208 215 222 224 221 222 226 231 234 246 264 269 263 256 252 253 256 258 260 262 266 268 271 273 276 279 280
274 272 239 205 219 241 196 265 262 248 274 325 311 339 202 272 317 319 303 303 310 294 241 219 243 239 237 246 253 255 270 288 301 284 265 274 274 264 249 230 222 213 206 199 201 206 210 210 208 209 210 212 212 211 211 208 209 210 212 214 216 218 220 214 201 196 197 197 201 206 213 221 226 228 228 229 234 241 245 258 273 272 263 256 252 251 253 256 259 261 263 265 267 268 270 271 270
255 252 207 175 183 162 204 249 238 243 268 318 287 303 309 280 296 304 300 301 301 267 220 216 250 275 257 249 243 249 275 291 297 292 284 282 281 270 254 235 224 218 212 203 203 206 210 210 208 210 211 213 212 213 213 210 210 211 214 216 219 221 220 213 198 194 198 200 206 211 216 226 231 233 234 236 240 246 252 264 272 267 259 256 254 252 250 251 253 255 256 258 260 260 260 258 258
214 199 154 156 131 172 251 262 261 270 260 225 271 291 305 311 299 301 304 308 297 220 212 215 241 275 266 255 253 261 281 290 290 293 290 285 283 276 260 240 226 220 216 209 205 207 210 209 209 211 211 213 213 215 214 213 214 215 216 217 220 221 215 209 200 197 200 203 208 215 222 231 237 240 242 245 249 254 259 265 266 258 253 251 250 248 244 246 245 246 247 249 249 249 250 249 252
185 173 168 199 163 203 257 264 268 278 232 231 265 271 285 300 296 291 297 297 273 240 224 222 221 255 267 250 255 277 297 301 296 296 293 287 283 275 262 245 230 222 219 213 210 209 210 209 209 211 212 214 214 217 217 215 217 218 220 218 219 216 209 207 206 203 206 210 213 221 229 235 241 247 251 254 259 263 264 264 260 251 244 241 241 242 239 240 239 238 237 238 240 243 247 249 253
173 172 173 222 225 231 253 259 268 266 246 254 261 257 269 284 284 275 278 271 265 262 236 227 207 220 287 254 258 288 305 309 306 304 298 290 283 272 261 248 235 227 222 217 214 212 211 210 210 212 214 215 216 219 219 218 218 220 221 219 216 213 211 212 213 212 214 218 221 228 235 238 245 253 258 262 262 260 259 258 255 247 240 238 238 238 232 231 230 232 233 236 239 243 249 250 254
167 164 156 217 231 253 257 257 259 241 244 253 266 265 270 276 270 259 262 272 266 254 247 229 211 230 276 284 272 295 313 316 314 309 304 294 284 271 258 247 238 230 226 223 219 215 213 212 211 213 215 218 219 220 220 220 220 222 223 220 218 217 218 219 221 222 224 228 230 234 240 244 249 255 261 262 251 243 246 245 242 240 239 241 239 237 233 232 233 234 237 241 247 248 252 254 256
185 136 151 228 246 270 284 287 275 276 270 269 275 267 268 265 250 244 239 264 264 249 247 218 210 233 254 280 275 296 314 318 319 316 316 304 289 270 255 245 239 232 229 228 224 219 217 214 213 215 217 219 221 221 221 222 223 225 226 222 222 223 224 226 229 230 232 235 238 240 244 250 251 251 256 254 236 230 231 230 230 230 231 232 233 236 236 241 245 248 251 253 256 257 258 258 256
223 136 194 258 263 281 303 304 290 298 291 270 272 230 232 208 205 240 228 255 262 252 240 215 217 224 236 260 270 295 307 311 320 321 322 317 297 270 251 242 239 235 231 228 225 224 222 217 216 218 219 221 222 222 222 225 226 227 228 225 225 227 227 230 234 236 238 240 243 245 246 251 253 250 248 240 229 224 223 223 222 220 220 223 227 231 234 241 248 254 260 261 262 262 262 262 257
235 146 225 268 281 293 296 293 292 304 295 250 196 177 201 190 212 272 243 254 250 256 254 221 227 240 256 266 276 288 296 301 312 313 313 314 302 277 253 240 238 237 233 229 225 225 225 221 219 220 221 222 224 224 224 226 228 229 229 228 228 230 231 233 236 239 242 245 247 247 246 248 252 249 242 234 228 226 223 221 215 215 215 218 223 227 231 235 241 246 251 255 256 257 256 257 257
220 183 245 290 196 272 252 278 288 292 300 99 186 232 229 216 239 261 244 273 255 235 270 241 227 241 261 265 276 275 283 302 304 304 303 301 296 283 262 244 238 238 234 230 226 226 226 225 222 222 222 223 225 226 226 227 228 230 232 232 231 234 236 237 240 243 245 246 247 246 244 245 246 242 236 231 228 227 223 218 213 213 215 217 222 224 228 228 229 232 233 237 238 241 241 242 247
209 183 238 271 215 244 216 258 299 275 292 20 238 226 232 246 250 250 248 282 281 256 272 262 220 226 244 242 271 274 286 298 298 297 295 291 286 278 265 250 241 238 234 229 227 227 227 227 226 225 224 223 224 226 228 229 229 230 233 235 236 237 240 242 244 246 246 245 244 242 241 241 238 232 230 228 228 225 219 215 214 213 215 216 218 219 220 221 220 222 221 222 223 223 225 226 230
201 185 229 264 237 244 205 211 232 257 269 273 235 221 245 251 223 245 270 273 279 276 270 249 226 241 255 252 271 283 288 292 292 292 289 284 280 273 266 253 244 239 236 232 229 229 228 229 228 227 227 225 225 226 228 230 230 230 233 236 238 241 243 245 244 245 244 242 242 241 240 238 232 228 227 227 225 221 215 213 214 214 214 212 213 214 213 216 215 215 214 213 213 213 214 215 217
191 194 242 256 241 231 198 196 199 279 295 260 225 217 247 255 213 261 288 272 270 276 270 258 248 254 263 265 274 283 287 288 287 288 284 282 276 270 265 257 249 243 240 238 235 233 230 230 229 229 229 228 228 227 229 231 231 231 233 236 238 241 244 245 244 242 240 239 239 238 236 232 229 228 226 225 223 217 213 213 214 213 212 210 210 212 213 215 215 214 212 210 210 210 209 209 209
191 214 247 250 253 237 202 216 213 290 297 278 252 228 248 270 273 282 288 270 265 272 271 266 263 264 269 272 277 281 284 285 284 283 280 279 274 269 266 261 256 250 246 243 240 238 235 233 230 230 231 230 230 230 231 232 233 233 234 236 237 241 243 244 243 241 239 237 236 234 231 229 229 228 226 224 220 215 213 213 214 212 210 210 211 213 214 215 217 216 214 213 212 211 210 209 208
206 232 243 246 252 226 191 230 226 231 274 289 287 269 259 273 291 284 278 273 271 275 274 267 264 270 276 278 280 281 281 282 283 281 278 276 274 271 267 263 260 256 252 248 247 245 240 238 234 232 232 232 232 232 233 234 235 234 235 237 238 240 242 243 242 240 240 237 235 232 229 229 229 228 227 222 216 213 214 214 213 212 210 211 212 215 217 219 220 219 218 217 216 216 216 215 213
216 220 246 250 247 241 224 237 237 244 271 288 286 285 276 272 276 267 266 277 274 269 272 265 262 274 281 285 288 286 282 282 282 281 279 277 274 271 268 265 262 260 259 257 254 249 245 242 239 236 234 233 233 233 234 234 235 235 236 238 239 240 241 241 241 240 239 238 236 232 229 230 228 227 226 219 214 213 213 213 212 211 211 213 215 218 221 223 223 222 222 222 223 224 225 225 223
187 201 246 259 235 254 242 240 248 256 268 275 280 289 283 275 273 254 249 277 270 262 268 268 273 283 287 287 290 289 285 283 282 282 280 279 277 274 271 268 266 263 261 257 253 251 249 247 243 239 237 236 234 234 235 234 234 235 236 237 238 239 240 240 240 240 238 238 235 231 230 230 228 227 226 219 215 215 215 214 212 211 212 214 216 220 222 223 223 224 225 226 228 230 231 233 231
204 221 246 260 242 260 255 245 258 263 265 269 273 280 281 280 270 247 232 251 262 269 277 279 283 289 288 285 287 288 287 284 283 283 283 283 282 279 276 272 268 263 258 255 253 252 250 248 246 242 241 239 237 237 236 236 235 235 236 236 237 238 239 239 240 240 238 236 234 231 230 228 228 228 226 222 219 218 217 215 214 213 214 215 217 220 222 223 224 224 226 228 229 231 232 234 235
240 240 240 255 250 253 261 254 262 266 262 262 264 278 284 277 271 254 229 240 261 276 282 284 289 289 288 288 287 288 288 287 287 286 286 286 284 282 280 277 272 268 263 259 255 252 249 247 246 244 243 242 240 239 238 237 236 236 236 236 236 237 238 239 239 240 238 236 234 232 230 229 229 228 227 224 222 220 219 217 215 214 215 217 220 222 223 222 224 224 225 226 226 227 228 230 233
238 259 245 257 256 253 261 259 260 265 261 263 272 283 282 268 273 267 233 247 269 282 286 287 291 290 288 289 288 290 291 291 291 290 288 286 284 284 281 277 273 269 264 259 254 251 249 246 246 246 244 243 242 241 239 239 239 237 237 237 236 236 237 238 239 239 238 236 234 233 231 230 230 230 229 226 224 222 220 218 216 215 216 219 222 223 223 222 223 223 222 222 222 222 223 225 227
221 250 259 260 261 261 267 268 265 266 262 266 272 273 273 270 277 276 258 264 275 283 288 288 289 288 286 287 289 291 292 293 293 292 289 287 285 282 279 276 272 268 264 258 254 250 249 247 246 245 244 244 243 242 241 240 240 239 238 238 237 237 237 238 238 239 239 237 234 233 231 231 230 230 230 228 227 225 222 220 217 217 218 220 222 223 223 222 221 221 220 219 219 219 219 221 223
210 241 265 267 270 272 274 274 268 265 262 260 260 262 269 274 284 279 267 270 277 281 286 287 286 286 287 290 293 293 292 293 294 293 290 288 284 279 277 276 273 273 272 267 262 256 251 248 246 245 245 245 244 243 243 242 241 240 239 240 239 238 238 238 238 238 238 237 235 233 232 232 231 231 230 229 228 226 224 221 219 219 220 221 222 223 222 221 220 219 218 218 217 217 217 219 221
244 263 278 273 275 277 273 273 268 259 257 244 237 260 268 273 287 276 266 271 278 278 282 285 286 287 291 294 297 298 296 296 297 294 291 288 284 282 283 280 279 281 280 276 275 269 259 252 248 246 245 245 245 245 245 244 243 242 241 241 240 239 239 238 239 238 237 236 235 234 233 233 233 232 231 230 228 227 225 222 221 220 221 222 223 223 222 221 220 219 217 217 217 217 217 218 220
303 305 289 278 276 279 267 262 262 246 244 236 225 256 270 269 245 256 265 269 273 278 282 284 285 288 293 296 298 299 296 294 294 289 285 284 283 284 284 283 284 285 283 282 284 279 270 262 255 250 247 246 245 246 246 245 244 244 243 242 241 240 239 239 239 239 237 237 236 234 234 233 233 232 231 230 229 228 226 224 222 222 222 223 224 223 222 221 220 220 218 218 217 217 218 218 220
285 295 288 286 283 285 268 251 253 221 212 217 200 247 266 248 233 254 266 269 271 277 280 282 283 286 289 291 293 292 292 290 288 284 283 283 282 282 282 283 285 285 284 284 282 277 275 271 264 257 251 248 246 246 247 247 246 245 244 243 243 242 240 239 240 240 239 238 237 235 234 234 233 233 232 230 229 228 227 225 224 223 223 224 224 224 223 222 221 221 221 220 219 219 220 220 220
270 265 276 292 289 287 267 225 213 191 195 181 174 251 268 248 250 260 266 267 272 272 271 276 278 282 284 286 288 289 290 289 287 286 286 286 284 283 283 284 286 285 285 282 278 276 276 274 269 263 256 251 248 247 247 247 246 246 245 245 244 244 242 241 241 241 241 239 238 236 235 235 234 233 232 231 229 228 227 226 225 224 224 224 224 224 223 223 222 222 222 222 221 220 221 220 220
275 281 242 275 277 279 268 151 155 197 192 171 181 263 270 269 271 274 276 269 272 268 268 274 273 278 282 283 286 288 289 290 289 287 286 286 286 286 286 286 287 286 285 283 280 278 274 271 268 265 260 255 251 248 247 247 247 246 246 246 245 245 244 243 242 241 241 240 239 238 236 236 235 234 233 231 230 229 228 227 225 224 224 224 224 224 224 224 224 224 224 223 223 222 222 222 221
252 270 260 234 234 267 281 266 197 219 196 172 192 259 265 268 275 280 287 281 276 271 275 279 278 279 281 281 283 286 290 291 290 289 288 290 291 292 292 292 292 291 290 289 285 279 273 269 265 263 260 256 253 250 248 248 249 248 247 247 247 246 245 245 244 243 242 242 240 239 238 237 236 235 234 233 231 230 229 228 227 225 224 224 225 225 225 225 225 225 224 224 224 224 224 223 223
220 235 264 256 257 274 288 288 224 182 168 187 213 256 273 271 280 282 284 286 286 281 282 284 283 282 282 281 281 284 288 291 293 294 296 298 298 298 298 299 299 296 294 292 288 281 273 268 264 261 260 258 255 253 250 249 249 249 248 247 247 246 245 245 245 244 243 242 241 240 239 237 236 236 235 234 233 231 231 229 228 227 225 224 225 226 225 226 225 225 225 225 225 225 225 224 224
236 217 246 252 257 271 284 289 295 146 182 213 224 241 259 269 283 285 283 287 286 282 281 282 283 283 282 283 282 283 285 289 295 300 302 303 305 305 304 305 304 301 298 293 288 282 275 269 264 260 259 257 256 254 252 250 249 249 249 248 247 246 245 245 245 244 244 243 242 241 240 239 238 238 237 235 234 233 232 231 230 229 227 226 226 226 226 226 226 226 226 226 226 225 224 222 223
258 256 267 275 252 248 261 270 295 156 239 242 237 244 256 266 274 279 283 286 283 280 280 279 279 280 282 283 282 285 287 288 295 302 306 308 312 312 310 312 313 310 305 298 290 283 277 273 268 263 260 258 256 254 252 251 249 248 248 248 248 246 244 244 243 243 244 243 243 243 242 241 239 239 238 236 235 234 233 232 231 230 228 228 227 226 225 225 225 225 226 226 226 225 224 223 222
280 290 280 284 276 261 262 266 272 314 281 267 260 265 271 274 275 280 286 288 281 278 279 277 275 278 282 281 281 286 292 295 300 306 311 317 319 317 320 327 330 328 323 316 306 296 287 278 272 267 263 262 259 256 253 250 249 247 246 247 247 246 245 244 243 243 243 243 243 243 243 242 240 239 239 238 236 235 234 233 232 230 229 228 228 227 227 226 226 226 226 226 226 225 224 223 222
303 285 269 269 275 273 271 274 275 104 282 272 267 276 280 279 279 280 283 283 274 270 274 275 277 280 281 280 283 291 299 302 307 313 319 323 325 335 348 355 2 8 9 360 349 337 318 299 285 275 269 266 261 259 257 254 252 250 247 246 246 247 247 246 245 244 243 243 243 242 243 242 241 240 239 238 237 236 235 234 233 231 230 229 229 229 229 229 228 227 227 227 227 225 224 223 222
269 263 270 268 263 269 267 273 282 86 269 272 262 274 280 278 276 273 273 272 267 267 273 278 280 280 278 281 293 309 306 307 316 324 328 336 358 24 28 27 28 23 19 4 349 337 324 313 305 295 285 275 267 264 262 260 258 257 255 253 251 250 249 249 248 246 245 244 243 242 242 241 240 240 239 238 237 236 235 234 233 232 231 230 229 229 229 229 229 228 228 227 227 226 225 224 223
260 257 265 265 264 276 268 258 274 68 255 281 279 280 282 274 269 265 263 261 268 273 271 271 273 273 276 292 312 309 307 314 329 336 345 14 37 41 38 29 12 4 1 347 335 325 316 311 306 301 295 287 279 272 268 267 265 263 262 260 257 254 253 252 250 249 248 246 245 243 242 241 240 239 238 238 237 236 235 235 234 234 233 232 231 230 229 229 228 228 228 228 227 225 225 225 223
246 244 258 270 264 272 269 242 256 257 261 283 292 286 274 265 260 258 267 268 268 270 262 260 263 267 280 298 302 305 313 327 342 356 24 47 49 45 40 26 7 359 358 350 343 335 327 322 315 307 298 290 284 277 274 273 269 266 264 261 260 258 256 256 254 253 251 249 247 245 244 242 240 239 238 238 237 237 236 235 235 235 234 233 232 231 230 229 229 228 228 227 227 226 225 225 224
239 229 243 263 261 262 267 279 317 302 271 271 298 291 267 248 237 221 287 273 256 264 262 257 260 271 286 293 300 315 331 342 354 21 50 58 53 46 40 35 30 25 18 11 5 355 346 338 331 323 310 298 288 281 277 273 269 266 263 260 259 257 256 255 255 254 252 250 249 247 246 244 243 240 238 238 238 237 237 236 236 235 235 235 234 233 232 232 231 230 229 228 228 227 228 227 225
260 220 222 248 264 271 274 289 318 305 274 88 339 313 290 166 163 124 107 241 274 274 260 252 260 279 286 295 309 330 352 11 24 38 55 56 50 43 40 42 42 40 36 31 27 20 11 0 349 340 329 316 302 289 280 274 271 268 264 260 257 256 257 258 258 257 256 255 253 252 250 248 246 244 241 239 238 238 238 237 237 236 236 235 235 234 234 233 232 232 231 230 230 230 229 228 228
273 226 214 240 259 267 273 289 300 293 295 36 15 309 289 244 215 237 248 255 275 265 257 259 274 281 289 300 316 349 23 38 43 47 52 47 42 44 45 46 46 45 44 40 36 30 24 17 9 360 349 336 323 306 289 278 275 272 269 266 263 261 262 263 265 264 262 262 261 259 257 254 251 249 246 242 239 238 238 238 238 237 237 236 236 235 235 234 233 233 232 232 233 231 230 229 230
271 24 192 229 249 261 264 276 262 281 314 305 179 222 274 283 243 225 230 219 247 255 271 299 293 305 307 316 5 40 36 38 46 49 49 44 41 44 47 47 45 43 42 39 35 29 24 19 14 9 4 357 348 331 310 292 282 277 276 274 271 269 268 267 267 267 267 267 266 264 262 260 257 254 251 247 243 240 239 238 238 238 238 237 237 236 236 236 235 234 233 233 234 233 231 231 232
279 60 40 148 250 281 253 267 264 291 312 291 178 182 259 282 246 122 152 204 233 245 289 324 320 340 324 354 40 38 32 40 49 48 46 43 40 43 46 41 37 35 34 33 31 26 23 19 14 12 9 5 1 355 340 319 299 286 281 278 275 273 272 268 267 268 269 269 268 266 265 263 261 259 255 252 248 244 241 239 238 238 238 238 238 237 237 237 237 236 234 234 233 233 233 233 234
130 117 98 88 91 55 105 269 290 302 288 267 167 170 252 285 250 127 147 228 237 206 122 314 316 10 356 16 37 33 37 47 54 56 52 43 38 43 47 38 31 28 26 26 24 22 21 17 14 11 10 9 5 2 357 346 325 303 290 284 280 277 275 271 268 268 269 268 266 266 265 264 263 261 259 256 253 249 245 241 239 238 238 238 239 238 238 238 238 237 236 236 235 235 235 234 234
121 141 110 96 167 116 116 262 326 288 273 232 166 177 220 289 263 147 165 220 259 175 111 321 346 19 3 19 46 44 46 53 56 58 54 46 43 45 42 34 25 19 19 20 19 19 18 14 12 9 9 9 7 5 2 357 346 327 310 298 290 285 280 276 273 272 271 269 268 268 267 266 265 264 262 260 257 253 249 245 242 239 238 239 239 239 239 239 239 238 237 237 237 237 237 236 236
155 188 310 295 249 186 175 182 138 246 267 201 158 179 202 245 247 148 160 38 205 233 328 346 10 359 345 16 44 43 47 53 53 52 47 44 44 41 34 26 18 11 11 14 16 18 15 11 8 4 4 4 4 5 4 2 356 345 331 315 304 295 286 280 277 276 274 272 272 271 270 269 268 267 265 263 260 257 254 249 245 241 240 239 239 239 239 239 239 239 239 238 237 237 238 238 237
193 202 226 265 279 265 241 226 174 237 260 89 131 182 210 242 249 232 272 291 123 219 292 348 0 336 348 23 34 38 47 48 47 46 41 38 37 35 32 25 22 16 11 9 9 11 10 9 6 1 359 359 360 1 2 4 1 354 343 329 318 306 295 287 282 279 277 275 274 272 271 270 270 270 269 268 266 263 259 254 249 246 243 241 240 240 239 239 239 239 239 239 238 238 238 238 238
188 194 192 216 241 261 258 245 243 261 263 62 68 180 233 268 272 246 258 277 64 71 355 358 352 351 19 37 37 42 47 45 46 44 39 39 36 33 32 30 29 25 19 13 8 6 4 3 2 1 358 356 357 358 359 1 0 358 352 340 328 316 306 298 290 285 281 278 276 274 273 272 271 272 272 272 271 269 265 260 256 251 247 244 242 241 240 240 240 240 240 240 239 239 239 239 240
189 185 183 218 224 246 259 247 260 282 310 61 133 187 243 285 10 290 284 9 31 16 16 14 17 36 53 52 46 45 44 45 48 47 45 42 37 35 35 34 34 30 25 19 14 10 4 360 359 359 358 356 355 355 355 356 355 354 351 344 335 322 313 307 299 293 288 284 281 278 276 274 274 275 275 275 273 271 268 265 261 256 251 247 244 243 241 241 240 240 241 241 241 240 240 240 240
178 112 181 242 232 230 262 280 272 305 319 260 193 228 254 273 294 291 183 73 29 21 44 45 44 53 57 48 40 40 41 44 45 45 47 43 39 38 35 34 35 32 28 24 20 16 9 4 359 357 357 356 354 352 351 349 349 348 344 339 334 324 315 308 303 298 294 290 286 283 281 279 278 277 276 275 274 272 269 267 264 261 256 252 248 245 243 242 241 240 241 241 241 241 241 241 241
134 155 200 207 67 221 257 277 262 201 276 252 225 256 258 272 283 230 134 115 98 77 58 58 53 50 51 43 36 35 39 43 43 44 44 42 42 40 37 37 36 33 31 27 22 17 12 6 360 357 354 352 352 352 348 344 342 342 339 334 327 320 313 306 301 299 296 292 288 285 283 281 280 279 278 277 276 273 270 268 265 263 261 257 253 249 246 244 243 242 242 242 242 242 242 242 242
143 187 214 96 54 14 250 273 264 207 255 246 240 260 264 274 272 139 79 27 68 68 48 53 50 46 49 41 33 36 40 43 43 43 40 39 39 37 37 36 34 32 29 25 22 18 13 7 2 358 354 352 351 349 347 344 340 337 334 330 324 314 306 300 296 295 293 290 288 287 285 283 282 281 280 279 277 274 272 269 267 264 262 260 257 254 250 247 245 244 243 243 244 243 243 243 243
139 265 341 64 217 234 193 219 233 234 251 247 237 253 263 264 264 310 339 10 62 59 42 49 45 45 49 42 37 38 41 42 41 39 37 35 33 31 31 30 29 27 23 22 21 16 14 12 7 3 358 355 350 345 342 341 340 339 334 330 326 318 307 298 292 291 289 288 288 289 288 287 286 284 281 279 277 275 273 272 269 266 264 262 260 257 254 252 249 247 245 244 244 244 244 244 243
36 1 338 357 250 251 231 181 182 241 253 257 239 240 248 250 281 311 335 44 76 61 56 57 50 56 56 49 45 39 42 42 39 36 34 31 29 27 26 25 23 22 19 18 16 14 13 10 6 4 1 356 350 344 340 337 338 342 342 338 334 330 321 309 298 293 290 290 291 292 291 290 288 286 284 281 278 276 275 274 272 269 267 264 262 260 258 255 253 250 249 248 247 246 245 245 245
145 173 237 275 206 263 283 249 197 222 250 259 253 244 238 258 296 311 1 75 77 68 75 66 57 72 73 67 59 47 45 41 37 35 30 26 24 21 18 17 16 15 13 11 7 4 2 0 0 360 358 358 358 354 349 344 342 344 347 348 347 345 340 330 318 306 298 294 293 292 292 292 290 287 286 284 281 279 277 275 273 271 269 267 264 263 261 258 256 253 251 250 250 249 248 247 247
207 223 219 224 222 219 257 248 209 201 228 233 250 256 250 252 296 47 88 93 85 82 85 76 61 62 68 74 69 56 48 40 34 30 24 21 18 14 12 9 7 6 5 4 2 360 359 0 3 2 359 1 3 3 0 355 351 349 349 351 351 351 350 347 340 329 317 309 302 295 290 288 287 287 287 286 284 281 279 277 275 272 270 269 267 265 263 261 259 257 254 252 251 250 249 249 248